You are not logged in, Click here to log in
日內瓦克萬特蘭國際機場GVA / LSGG 瑞士日內瓦
ICAO: LSGG Country: 瑞士日內瓦
Latitude: 46.2381 Longitude: 6.10895
Total Arrivals: 20 Total Departures: 18
Latest Arrival: OS575 (LOWW-LSGG)Arthur. Kung Latest Departure: DS1377 (LSGG-LFMN)Arthur. Kung
Scenery:
METAR : LSGG 241820Z 26006KT CAVOK 16/06 Q1018 NOSIG

日內瓦克萬特蘭國際機場GVA

You are accessing this site from IP address 35.175.113.29. Virtual Airline. CMS by phpVMS.Website designed by Zumeweb and edited by Theo Bearman.
There is 0 User(s) Online: | and 4 Guest(s) Online.
All information on this site is for fight simulation purposes only. This site is for flight logging for pilots of Virtual Airline&模擬飛行論壇 FlySim only.